This demonstration page uses our WeatherBlox Daily Observations layout. Learn more.

Left ArrowRight Arrow

Hourly Observations for December 12, 2020

Temp ( °F °C ) Dew Point ( °F °C ) Humidity (%) Winds ( mph kmh ) Pressure ( in mb ) Visibility ( mi km ) Precip ( " mm )
12:52 am 00:52 Windy with Snow Likely 32 0 31 -0.6 96 96 N 22 35 29.91 1013 1 2 0.04 1.02
1:47 am 01:47 Cloudy with Light Snow 32 0 30 -1 93 93 N 18 30 29.94 1014 1 1 0.02 0.51
1:52 am 01:52 Cloudy with Light Snow 32 0 31 -0.6 96 96 N 18 30 29.91 1013 1 1 0.02 0.51
2:25 am 02:25 Windy with Snow Likely 32 0 31 -0.6 96 96 N 20 31 29.95 1014 1 2 0.02 0.51
2:52 am 02:52 Cloudy with Light Snow 32 0 31 -0.6 96 96 N 17 28 29.93 1014 2 2 0.03 0.76
3:52 am 03:52 Cloudy with Light Snow 31 -0.6 30 -1.1 96 96 N 18 30 29.93 1014 2 2 0.01 0.25
4:17 am 04:17 Windy with Snow Likely 31 -0.6 30 -1.1 96 96 N 20 31 29.96 1015 2 3 0.00 0.00
4:31 am 04:31 Cloudy with Light Snow 31 -0.6 30 -1.1 96 96 N 17 28 29.96 1015 2 3 0.01 0.25
4:44 am 04:44 Cloudy with Light Snow 31 -0.6 30 -1.1 96 96 N 16 26 29.97 1015 2 3 0.01 0.25
4:52 am 04:52 Cloudy with Light Snow 31 -0.6 30 -1.1 96 96 N 17 28 29.95 1014 2 3 0.02 0.51
4:59 am 04:59 Cloudy with Light Snow 30 -1.1 30 -1.1 100 100 N 16 26 29.99 1015 2 3 0.00 0.00
5:08 am 05:08 Cloudy with Light Snow 30 -1.1 30 -1.1 100 100 N 17 28 29.99 1015 2 2 0.00 0.00
5:32 am 05:32 Cloudy with Light Snow 30 -1.1 29 -1.7 96 96 NNW 17 28 30.01 1016 2 3 0.02 0.51
5:45 am 05:45 Cloudy with Light Snow 30 -1.1 29 -1.7 96 96 NNW 18 30 30.01 1016 4 6 0.02 0.51
5:52 am 05:52 Cloudy with Light Snow 30 -1.1 29 -1.7 96 96 NNW 17 28 29.98 1015 3 4 0.02 0.51
6:00 am 06:00 Windy with Snow Likely 30 -1.1 29 -1.7 96 96 N 20 31 30.01 1016 3 4 0.00 0.00
6:12 am 06:12 Cloudy with Light Snow 30 -1.1 29 -1.7 96 96 NNW 17 28 30.02 1016 3 5 0.00 0.00
6:23 am 06:23 Cloudy with Light Snow 30 -1.1 28 -2.2 92 92 NNW 18 30 30.03 1017 3 4 0.01 0.25
6:52 am 06:52 Cloudy with Light Wintry Mix 30 -1.1 28 -2.2 92 92 NNW 21 33 30.01 1016 3 5 0.01 0.25
7:52 am 07:52 Windy with Snow Likely 29 -1.7 26 -3.3 89 89 NNW 22 35 30.03 1017 7 11 0.00 0.00
8:52 am 08:52 Windy with Snow Likely 29 -1.7 26 -3.3 89 89 NNW 20 31 30.05 1018 6 10 0.00 0.00
9:52 am 09:52 Mostly Cloudy 29 -1.7 26 -3.3 89 89 N 22 35 30.07 1018 10 16 0.00 0.00
10:16 am 10:16 Mostly Cloudy 29 -1.7 25 -3.9 85 85 NNW 21 33 30.11 1020 10 16 0.00 0.00
10:52 am 10:52 Mostly Cloudy 29 -1.7 25 -3.9 85 85 NNW 17 28 30.08 1019 10 16 0.00 0.00
11:25 am 11:25 Mostly Sunny 30 -1.1 25 -3.9 82 82 NNW 15 24 30.12 1020 10 16 0.00 0.00
11:52 am 11:52 Mostly Cloudy 30 -1.1 25 -3.9 82 82 NNW 16 26 30.06 1018 10 16 0.00 0.00
12:52 pm 12:52 Mostly Cloudy 30 -1.1 25 -3.9 82 82 N 17 28 30.06 1018 10 16 0.00 0.00
1:52 pm 13:52 Partly Cloudy 31 -0.6 25 -3.9 79 79 NNW 14 22 30.06 1018 10 16 0.00 0.00
2:52 pm 14:52 Mostly Sunny 31 -0.6 25 -3.9 79 79 NNW 12 19 30.08 1019 10 16 0.00 0.00
3:52 pm 15:52 Partly Cloudy 29 -1.7 23 -5 78 78 NW 8 13 30.12 1020 10 16 0.00 0.00
4:52 pm 16:52 Partly Cloudy 28 -2.2 23 -5 81 81 N 8 13 30.12 1020 10 16 0.00 0.00
5:52 pm 17:52 Partly Cloudy 25 -3.9 21 -6.1 85 85 N 7 11 30.13 1020 10 16 0.00 0.00
6:14 pm 18:14 Mostly Cloudy 25 -3.9 21 -6.1 85 85 N 7 11 30.17 1022 10 16 0.00 0.00
6:52 pm 18:52 Mostly Cloudy 25 -3.9 22 -5.6 88 88 N 5 7 30.16 1021 10 16 0.00 0.00
7:25 pm 19:25 Partly Cloudy 25 -3.9 21 -6.1 85 85 N 6 9 30.19 1022 10 16 0.00 0.00
7:52 pm 19:52 Partly Cloudy 24 -4.4 21 -6.1 88 88 N 3 6 30.16 1021 10 16 0.00 0.00
8:52 pm 20:52 Partly Cloudy 24 -4.4 21 -6.1 88 88 N 5 7 30.17 1022 10 16 0.00 0.00
9:52 pm 21:52 Partly Cloudy 22 -5.6 20 -6.7 92 92 NNW 7 11 30.22 1024 10 16 0.00 0.00
10:52 pm 22:52 Partly Cloudy 20 -6.7 18 -7.8 92 92 N 7 11 30.23 1024 10 16 0.00 0.00
11:52 pm 23:52 Partly Cloudy 21 -6.1 18 -7.8 88 88 N 5 7 30.24 1024 10 16 0.00 0.00

Powered by AerisWeather